Weather History for KABI - November, 2014

Change the Weather History Date:

Thursday, November 20, 2014

  Actual Average Record
Temperature  
Mean Temperature 60 °F 53 °F  
Max Temperature 72 °F 64 °F 89 °F (1996)
Min Temperature 47 °F 41 °F 22 °F (1937)
Degree Days  
Heating Degree Days 5 13  
Month to date heating degree days 296 182  
Since 1 July heating degree days 323 286  
Cooling Degree Days 0 0  
Month to date cooling degree days 9 15  
Year to date cooling degree days 2819 2404  
Growing Degree Days 10 (Base 50)    
Moisture  
Dew Point 42 °F    
Average Humidity 57    
Maximum Humidity 80    
Minimum Humidity 34    
Precipitation  
Precipitation 0.00 in 0.04 in 1.92 in (1933)
Month to date precipitation 2.12 1.03  
Year to date precipitation 14.17 23.21  
Sea Level Pressure  
Sea Level Pressure 30.00 in    
Wind  
Wind Speed 12 mph (SSW)    
Max Wind Speed 23 mph    
Max Gust Speed 29 mph    
Visibility 10 miles    
Events      
T = Trace of Precipitation, MM = Missing Value Source: NWS Daily Summary

Daily Weather History Graph

Daily Weather History Graph

Search for Another Location

Airport or City:

Trip Planner

Search our weather history database for the weather conditions in past years. The results will help you decide how hot, cold, wet, or windy it might be!

Date:

Astronomy

Nov. 20, 2014 Rise Set
Actual Time 7:12 AM CST 5:35 PM CST
Civil Twilight 6:46 AM CST 6:02 PM CST
Nautical Twilight 6:16 AM CST 6:31 PM CST
Astronomical Twilight 5:47 AM CST 7:01 PM CST
Moon 5:16 AM CST (11/20) 4:35 PM CST (11/20)
Length of Visible Light 11h 15m
Length of Day
10h 23m
Waning Crescent, 4% of the Moon is Illuminated
Nov 20
Waning Crescent
Nov 22
New
Nov 29
First Quarter
Dec 6
Full
Dec 14
Last Quarter

Hourly Weather History & Observations

Time (CST) Temp. Dew Point Humidity Pressure Visibility Wind Dir Wind Speed Gust Speed Precip Events Conditions
12:52 AM 48.0 °F 30.0 °F 50% 30.08 in 10.0 mi SSW 5.8 mph - N/A   Clear
1:52 AM 48.0 °F 32.0 °F 54% 30.06 in 10.0 mi South 4.6 mph - N/A   Clear
2:52 AM 48.9 °F 35.1 °F 59% 30.05 in 10.0 mi SSW 9.2 mph - N/A   Clear
3:52 AM 50.0 °F 37.9 °F 63% 30.03 in 10.0 mi SSW 8.1 mph - N/A   Clear
4:52 AM 50.0 °F 39.9 °F 68% 30.01 in 10.0 mi South 10.4 mph - N/A   Clear
5:52 AM 51.1 °F 43.0 °F 74% 30.01 in 10.0 mi SSW 17.3 mph 26.5 mph N/A   Clear
6:52 AM 50.0 °F 44.1 °F 80% 30.02 in 10.0 mi South 15.0 mph - N/A   Clear
7:52 AM 50.0 °F 44.1 °F 80% 30.05 in 10.0 mi SSW 16.1 mph 21.9 mph N/A   Partly Cloudy
8:15 AM 48.0 °F 44.1 °F 86% 30.07 in 10.0 mi SSW 17.3 mph - N/A   Partly Cloudy
8:36 AM 48.9 °F 44.1 °F 83% 30.07 in 10.0 mi SSW 17.3 mph 28.8 mph N/A   Overcast
8:52 AM 50.0 °F 45.0 °F 83% 30.07 in 10.0 mi SW 17.3 mph 26.5 mph N/A   Overcast
9:28 AM 52.0 °F 45.0 °F 77% 30.08 in 10.0 mi SSW 15.0 mph - N/A   Overcast
9:35 AM 51.1 °F 45.0 °F 80% 30.07 in 10.0 mi SSW 19.6 mph - N/A   Scattered Clouds
9:52 AM 53.1 °F 46.0 °F 77% 30.06 in 10.0 mi SSW 16.1 mph - N/A   Scattered Clouds
10:52 AM 59.0 °F 46.0 °F 62% 30.05 in 10.0 mi SSW 12.7 mph 24.2 mph N/A   Clear
11:52 AM 63.0 °F 46.0 °F 54% 30.02 in 10.0 mi SSW 17.3 mph 24.2 mph N/A   Clear
12:52 PM 66.9 °F 46.0 °F 47% 29.97 in 10.0 mi SSW 13.8 mph - N/A   Clear
1:52 PM 70.0 °F 44.1 °F 39% 29.93 in 10.0 mi SSW 18.4 mph 23.0 mph N/A   Clear
2:52 PM 72.0 °F 42.1 °F 34% 29.91 in 10.0 mi SSW 15.0 mph 23.0 mph N/A   Clear
3:52 PM 72.0 °F 41.0 °F 33% 29.90 in 10.0 mi SSW 16.1 mph - N/A   Clear
4:52 PM 71.1 °F 41.0 °F 34% 29.90 in 10.0 mi SSW 11.5 mph - N/A   Clear
5:52 PM 64.9 °F 41.0 °F 42% 29.91 in 10.0 mi South 8.1 mph - N/A   Clear
6:52 PM 60.1 °F 41.0 °F 49% 29.94 in 10.0 mi SSE 9.2 mph - N/A   Clear
7:52 PM 55.9 °F 39.9 °F 55% 29.95 in 10.0 mi SE 8.1 mph - N/A   Clear
8:52 PM 55.0 °F 41.0 °F 59% 29.96 in 10.0 mi South 5.8 mph - N/A   Clear
9:52 PM 53.1 °F 39.9 °F 61% 29.98 in 10.0 mi South 6.9 mph - N/A   Clear
10:52 PM 55.9 °F 45.0 °F 67% 29.97 in 10.0 mi South 10.4 mph - N/A   Clear
11:52 PM 55.9 °F 48.0 °F 75% 29.98 in 10.0 mi South 11.5 mph - N/A   Clear